| time (UTC) | temp F | wind direction | speed MPH | gust MPH | rain 1hr in | rain 24hr in | rain mn in | humidity % | barometer mb |
| 20260504181115 | 59 | 158 | 5.0 | 8.0 | 0.00 | 0.00 | 0.00 | 75 | 1016.5 |
| 20260504180115 | 58 | 179 | 3.0 | 10.0 | 0.00 | 0.00 | 0.00 | 75 | 1016.5 |
| 20260504175115 | 58 | 240 | 8.0 | 13.0 | 0.00 | 0.00 | 0.00 | 75 | 1016.4 |
| 20260504174115 | 58 | 205 | 3.0 | 8.0 | 0.00 | 0.00 | 0.00 | 77 | 1016.1 |
| 20260504173155 | 57 | 207 | 6.0 | 11.0 | 0.00 | 0.00 | 0.00 | 76 | 1016.1 |
| 20260504172115 | 58 | 139 | 4.0 | 8.0 | 0.00 | 0.00 | 0.00 | 76 | 1016.1 |
| 20260504171115 | 57 | 190 | 4.0 | 10.0 | 0.00 | 0.00 | 0.00 | 79 | 1015.9 |
| 20260504170115 | 57 | 218 | 2.0 | 4.0 | 0.00 | 0.00 | 0.00 | 79 | 1016.0 |
| 20260504160115 | 57 | 71 | 3.0 | 6.0 | 0.00 | 0.00 | 0.00 | 80 | 1016.1 |
| 20260504151115 | 54 | 96 | 2.0 | 3.0 | 0.00 | 0.00 | 0.00 | 85 | 1016.4 |
| 20260504150115 | 53 | 110 | 1.0 | 2.0 | 0.00 | 0.00 | 0.00 | 87 | 1016.1 |
| 20260504141115 | 48 | 48 | 1.0 | 2.0 | 0.00 | 0.00 | 0.00 | 92 | 1015.8 |
| 20260504140115 | 47 | 0.0 | 1.0 | 0.00 | 0.00 | 0.00 | 92 | 1015.7 | |
| 20260504130117 | 47 | 0.0 | 0.0 | 0.00 | 0.00 | 0.00 | 91 | 1015.2 | |
| 20260504120118 | 48 | 329 | 1.0 | 2.0 | 0.00 | 0.00 | 0.00 | 91 | 1015.4 |
| 20260504110117 | 47 | 0.0 | 0.0 | 0.00 | 0.00 | 0.00 | 91 | 1015.4 | |
| 20260504100117 | 46 | 31 | 1.0 | 2.0 | 0.00 | 0.00 | 0.00 | 91 | 1015.3 |
| 20260504090117 | 47 | 0.0 | 0.0 | 0.00 | 0.00 | 0.00 | 90 | 1015.6 | |
| 20260504081117 | 47 | 0.0 | 0.0 | 0.00 | 0.00 | 0.00 | 90 | 1016.1 | |
| 20260504080117 | 47 | 0.0 | 1.0 | 0.00 | 0.00 | 0.00 | 89 | 1016.2 | |
| 20260504070117 | 48 | 0.0 | 1.0 | 0.00 | 0.00 | 0.00 | 89 | 1016.0 | |
| 20260504060137 | 49 | 0.0 | 0.0 | 0.00 | 0.00 | 0.00 | 88 | 1015.9 | |
| 20260504050117 | 50 | 0.0 | 0.0 | 0.00 | 0.00 | 0.00 | 85 | 1015.6 | |
| 20260504045117 | 50 | 50 | 1.0 | 2.0 | 0.00 | 0.00 | 0.00 | 85 | 1015.7 |
| 20260504044117 | 51 | 0.0 | 0.0 | 0.00 | 0.00 | 0.00 | 84 | 1015.5 | |
| 20260504043117 | 51 | 0.0 | 0.0 | 0.00 | 0.00 | 0.00 | 83 | 1015.4 | |
| 20260504042117 | 52 | 327 | 1.0 | 2.0 | 0.00 | 0.00 | 0.00 | 82 | 1015.2 |
| 20260504041117 | 52 | 0.0 | 1.0 | 0.00 | 0.00 | 0.00 | 82 | 1015.1 | |
| 20260504040137 | 53 | 0.0 | 1.0 | 0.00 | 0.00 | 0.00 | 81 | 1015.0 | |
| 20260504035137 | 53 | 318 | 1.0 | 2.0 | 0.00 | 0.00 | 0.00 | 80 | 1015.0 |
| 20260504034117 | 54 | 0.0 | 1.0 | 0.00 | 0.00 | 0.00 | 79 | 1014.9 | |
| 20260504033117 | 54 | 246 | 1.0 | 3.0 | 0.00 | 0.00 | 0.00 | 79 | 1014.8 |
| 20260504032137 | 54 | 248 | 2.0 | 3.0 | 0.00 | 0.00 | 0.00 | 78 | 1014.7 |
| 20260504031117 | 55 | 229 | 2.0 | 3.0 | 0.00 | 0.00 | 0.00 | 76 | 1014.7 |
| 20260504030117 | 55 | 255 | 2.0 | 4.0 | 0.00 | 0.00 | 0.00 | 74 | 1014.6 |
| 20260504025117 | 56 | 217 | 1.0 | 3.0 | 0.00 | 0.00 | 0.00 | 73 | 1014.5 |
| 20260504024117 | 56 | 220 | 2.0 | 3.0 | 0.00 | 0.00 | 0.00 | 71 | 1014.4 |
| 20260504023117 | 57 | 232 | 4.0 | 5.0 | 0.00 | 0.00 | 0.00 | 71 | 1014.4 |
| 20260504022117 | 57 | 241 | 3.0 | 7.0 | 0.00 | 0.00 | 0.00 | 71 | 1014.3 |
| 20260504021117 | 58 | 260 | 3.0 | 5.0 | 0.00 | 0.00 | 0.00 | 71 | 1014.3 |
| 20260504020117 | 58 | 257 | 4.0 | 5.0 | 0.00 | 0.00 | 0.00 | 69 | 1014.4 |
| 20260504015117 | 58 | 229 | 4.0 | 8.0 | 0.00 | 0.00 | 0.00 | 68 | 1014.5 |
| 20260504014137 | 59 | 245 | 4.0 | 7.0 | 0.00 | 0.00 | 0.00 | 66 | 1014.4 |
| 20260504013117 | 59 | 261 | 3.0 | 9.0 | 0.00 | 0.00 | 0.00 | 68 | 1014.4 |
| 20260504012116 | 59 | 220 | 3.0 | 6.0 | 0.00 | 0.00 | 0.00 | 69 | 1014.4 |
| 20260504011116 | 59 | 181 | 5.0 | 8.0 | 0.00 | 0.00 | 0.00 | 69 | 1014.4 |
| 20260504010117 | 59 | 235 | 5.0 | 8.0 | 0.00 | 0.00 | 0.00 | 67 | 1014.4 |
| 20260504005117 | 59 | 218 | 6.0 | 12.0 | 0.00 | 0.00 | 0.00 | 67 | 1014.3 |
| 20260504004117 | 59 | 241 | 4.0 | 8.0 | 0.00 | 0.00 | 0.00 | 68 | 1014.1 |
| 20260504003117 | 59 | 217 | 9.0 | 13.0 | 0.00 | 0.00 | 0.00 | 68 | 1014.2 |
| 20260504002116 | 58 | 171 | 3.0 | 8.0 | 0.00 | 0.00 | 0.00 | 69 | 1014.1 |
| 20260504001116 | 59 | 211 | 5.0 | 9.0 | 0.00 | 0.00 | 0.00 | 68 | 1014.0 |
| 20260504000117 | 60 | 196 | 6.0 | 12.0 | 0.00 | 0.00 | 0.00 | 67 | 1013.9 |
| 20260503235135 | 60 | 240 | 2.0 | 7.0 | 0.00 | 0.00 | 0.00 | 63 | 1013.8 |
| 20260503234136 | 60 | 236 | 5.0 | 10.0 | 0.00 | 0.00 | 0.00 | 62 | 1013.8 |
| 20260503233117 | 60 | 255 | 7.0 | 12.0 | 0.00 | 0.00 | 0.00 | 63 | 1013.9 |
| 20260503232117 | 60 | 245 | 4.0 | 8.0 | 0.00 | 0.00 | 0.00 | 63 | 1013.9 |
| 20260503231135 | 60 | 269 | 3.0 | 9.0 | 0.00 | 0.00 | 0.00 | 64 | 1013.9 |
| 20260503230116 | 60 | 231 | 7.0 | 11.0 | 0.00 | 0.00 | 0.00 | 65 | 1014.0 |
| 20260503225117 | 60 | 196 | 5.0 | 8.0 | 0.00 | 0.00 | 0.00 | 62 | 1014.0 |
| 20260503224116 | 60 | 203 | 4.0 | 8.0 | 0.00 | 0.00 | 0.00 | 61 | 1014.1 |
| 20260503223115 | 60 | 231 | 4.0 | 6.0 | 0.00 | 0.00 | 0.00 | 60 | 1014.1 |
| 20260503222116 | 61 | 227 | 5.0 | 9.0 | 0.00 | 0.00 | 0.00 | 61 | 1014.2 |
| 20260503221117 | 60 | 224 | 6.0 | 9.0 | 0.00 | 0.00 | 0.00 | 60 | 1014.2 |
| 20260503220116 | 60 | 219 | 4.0 | 5.0 | 0.00 | 0.00 | 0.00 | 61 | 1014.3 |
| 20260503215137 | 60 | 215 | 7.0 | 10.0 | 0.00 | 0.00 | 0.00 | 64 | 1014.3 |
| 20260503214116 | 61 | 221 | 9.0 | 14.0 | 0.00 | 0.00 | 0.00 | 64 | 1014.4 |
| 20260503213115 | 60 | 207 | 3.0 | 9.0 | 0.00 | 0.00 | 0.00 | 67 | 1014.3 |
| 20260503212116 | 60 | 212 | 8.0 | 12.0 | 0.00 | 0.00 | 0.00 | 65 | 1014.3 |
| 20260503211136 | 60 | 234 | 7.0 | 12.0 | 0.00 | 0.00 | 0.00 | 67 | 1014.2 |
| 20260503210137 | 59 | 213 | 4.0 | 8.0 | 0.00 | 0.00 | 0.00 | 67 | 1014.3 |
| 20260503205115 | 59 | 225 | 4.0 | 8.0 | 0.00 | 0.00 | 0.00 | 68 | 1014.3 |
| 20260503204116 | 59 | 236 | 6.0 | 8.0 | 0.00 | 0.00 | 0.00 | 72 | 1014.3 |
| 20260503203116 | 58 | 153 | 4.0 | 7.0 | 0.00 | 0.00 | 0.00 | 76 | 1014.5 |
| 20260503202116 | 58 | 222 | 5.0 | 10.0 | 0.00 | 0.00 | 0.00 | 77 | 1014.6 |
| 20260503201115 | 58 | 207 | 4.0 | 9.0 | 0.00 | 0.00 | 0.00 | 80 | 1014.7 |
| 20260503200116 | 58 | 210 | 5.0 | 9.0 | 0.00 | 0.00 | 0.00 | 81 | 1014.7 |
| 20260503195116 | 57 | 216 | 5.0 | 10.0 | 0.00 | 0.00 | 0.00 | 81 | 1014.7 |
| 20260503194135 | 58 | 197 | 2.0 | 9.0 | 0.00 | 0.00 | 0.00 | 80 | 1014.7 |
| 20260503193116 | 57 | 186 | 6.0 | 11.0 | 0.00 | 0.00 | 0.00 | 80 | 1014.6 |
| 20260503192117 | 58 | 148 | 3.0 | 7.0 | 0.00 | 0.00 | 0.00 | 79 | 1014.7 |
| 20260503191117 | 59 | 222 | 6.0 | 11.0 | 0.00 | 0.00 | 0.00 | 77 | 1014.7 |
| 20260503190116 | 58 | 205 | 7.0 | 11.0 | 0.00 | 0.00 | 0.00 | 78 | 1014.7 |
| 20260503185116 | 59 | 230 | 8.0 | 10.0 | 0.00 | 0.00 | 0.00 | 76 | 1014.6 |
| 20260503184116 | 59 | 203 | 5.0 | 9.0 | 0.00 | 0.00 | 0.00 | 75 | 1014.5 |
| 20260503183115 | 59 | 224 | 5.0 | 9.0 | 0.00 | 0.00 | 0.00 | 73 | 1014.5 |
| 20260503182136 | 58 | 174 | 5.0 | 7.0 | 0.00 | 0.00 | 0.00 | 72 | 1014.5 |